Content
SEND FEEDBACK

Daily
Averages
Monthly
Summary
United States of America

RAPID CITY, SOUTH DAKOTA


Home > North America > United States > South Dakota
Elevation: 3162 feet     Latitude: 44 03N     Longitude: 103 04W

WEATHER
 
SELECT A DAY
Number of Records: 200,329;   Date Range: 1/1/95 - 7/29/14
 
SHARE

PRINT THIS DATA

[ ← Previous Day ]
WEATHER ALMANAC - FEBRUARY 18, 2013
[ Next Day → ]
[ °C ]   °F
Weather ElementAverageHighLow
Temperature26.7 °F33.1 °F (12:52 pm)14 °F (10:52 pm)
Dewpoint16 °F21.9 °F (12:52 am)8.1 °F (11:52 pm)
Humidity64.6 %80 % (10:52 pm)52 % (9:52 am)
Barometer30.02 in30.26 in (11:52 pm)29.73 in (12:25 am)
Wind Speed25.4 mph38 mph (2:52 am)
Wind Gust48.3 mph (3:52 am)
Weather ElementAverage
Visibility9.3 mi
Wind DirectionWNW (302.9 °)

Weather ElementTotal
Precipitation---
Heating Degree Days41.5 (Base 65)
Averaged from 28 records on February 18, 2013
WEATHER CONDITIONS BREAKOUT
WIND DIRECTION BREAKOUT
WEATHER BY HOUR - FEBRUARY 18, 2013
[ °C ]   °F
Local TimeTemperatureDewpointHumidityBarometerVisibilityWind DirectionWind SpeedGust SpeedPrecipitationEventsConditions
12:25 AM32.0 °F21.2 °F64 %29.73 in10.0 miNNW (330°)34.5 mph44.9 mphMostly Cloudy
12:52 AM32.0 °F21.9 °F66 %29.77 in10.0 miNNW (330°)32.2 mph40.3 mphMostly Cloudy
1:52 AM32.0 °F19.9 °F61 %29.81 in10.0 miNW (320°)27.6 mph35.7 mphOvercast
2:52 AM30.0 °F21.0 °F69 %29.86 in10.0 miNNW (330°)38.0 mph47.2 mphOvercast
3:52 AM28.9 °F19.0 °F67 %29.87 in10.0 miNNW (330°)33.4 mph48.3 mphOvercast
4:12 AM28.4 °F17.6 °F64 %29.81 in10.0 miNNW (340°)28.8 mph44.9 mphOvercast
4:52 AM26.1 °F16.0 °F66 %29.92 in10.0 miNNW (340°)32.2 mph40.3 mphClear
5:52 AM27.0 °F17.1 °F66 %29.95 in10.0 miNNW (340°)21.9 mph28.8 mphMostly Cloudy
6:52 AM26.6 °F17.6 °F69 %29.87 in10.0 miNNW (330°)28.8 mph34.5 mphClear
7:52 AM28.0 °F17.1 °F63 %29.99 in10.0 miNNW (330°)29.9 mph41.4 mphClear
8:52 AM30.0 °F17.1 °F59 %30.01 in10.0 miNW (320°)26.5 mph41.4 mphClear
9:52 AM32.0 °F16.0 °F52 %30.03 in10.0 miNNW (340°)31.1 mph42.6 mphPartly Cloudy
10:52 AM32.0 °F17.1 °F54 %30.04 in10.0 miNNW (340°)27.6 mph38.0 mphScattered Clouds
11:52 AM32.0 °F16.0 °F52 %30.06 in10.0 miNNW (330°)29.9 mph39.1 mphOvercast
12:52 PM33.1 °F17.1 °F52 %30.05 in10.0 miNNW (330°)28.8 mph35.7 mphPartly Cloudy
1:40 PM28.4 °F19.4 °F69 %29.98 in1.8 miNNW (340°)28.8 mph38.0 mph0.00 inSnowLight Snow
1:47 PM28.4 °F21.2 °F74 %29.98 in2.5 miNNW (340°)26.5 mph36.8 mph0.00 inSnowLight Snow
1:52 PM30.0 °F21.0 °F69 %30.08 in5.0 miNNW (340°)27.6 mph33.4 mph0.00 inSnowLight Snow
2:52 PM30.9 °F15.1 °F52 %30.09 in10.0 miNNW (340°)32.2 mph42.6 mph0.00 inOvercast
3:52 PM28.0 °F15.1 °F58 %30.12 in10.0 miNNW (340°)28.8 mph40.3 mphOvercast
4:52 PM27.0 °F12.9 °F56 %30.14 in10.0 miNNW (340°)23.0 mph34.5 mphOvercast
5:52 PM24.8 °F12.2 °F59 %30.05 in10.0 miNorth (350°)24.2 mph28.8 mphOvercast
6:52 PM19.9 °F10.9 °F68 %30.19 in10.0 miNorth (350°)17.3 mphClear
7:52 PM19.0 °F10.9 °F71 %30.21 in10.0 miNorth (360°)12.7 mphPartly Cloudy
8:52 PM18.0 °F10.9 °F74 %30.22 in10.0 miNorth (360°)8.1 mphMostly Cloudy
9:52 PM16.0 °F10.0 °F77 %30.22 in10.0 miNorth (10°)6.9 mphOvercast
10:52 PM14.0 °F9.0 °F80 %30.24 in10.0 miNNE (20°)13.8 mphClear
11:52 PM14.0 °F8.1 °F77 %30.26 in10.0 miNorth (10°)10.4 mphClear
Hourly data recorded from KRAP, located miles away from Rapid City, South Dakota







STORIES FROM OUR PARTNERS